GFSNGP_250_rhum_081.txt.gz
RH
11 15 16 20 22 21 21 17 17 16 16 16 18 17 16 18 21 22 20 18 18 19 18 23 28 30 28 27 27 26 27 28 28 28 27 28 28 28 27 27 27 27 27 27
9 10 14 18 18 20 23 23 22 18 19 15 16 18 20 18 18 20 20 18 16 17 17 18 18 20 25 27 27 27 27 28 28 28 30 30 30 29 28 27 27 27 26 26
10 10 12 13 16 19 20 22 25 25 20 20 20 19 19 18 19 19 20 20 19 18 16 16 17 17 17 17 19 20 22 23 23 27 29 30 30 29 29 28 28 28 28 28
11 12 12 12 14 16 18 21 25 25 24 28 28 26 24 22 19 19 18 16 16 16 17 16 17 19 19 20 20 19 19 20 23 25 25 24 22 22 22 22 22 23 23 23
13 12 13 12 12 14 16 20 28 29 28 32 32 28 30 31 28 27 27 26 25 25 24 21 21 22 22 23 24 25 24 22 20 20 19 18 18 18 18 19 19 19 20 20
14 14 13 13 11 12 16 20 24 30 31 28 28 26 28 30 31 34 33 33 40 44 43 46 45 40 36 35 35 34 30 26 25 23 21 20 19 19 19 18 19 19 19 20
18 20 21 19 13 13 15 18 20 21 22 25 27 29 28 29 29 27 27 31 28 26 27 32 34 33 30 30 28 28 29 29 30 28 28 25 23 23 22 21 21 21 19 20
21 19 19 24 21 20 15 15 15 17 18 23 27 32 32 30 32 29 28 28 28 25 24 25 26 26 28 26 24 22 22 24 24 27 27 28 28 27 27 26 24 24 26 27
34 43 22 17 19 21 24 20 14 14 16 17 19 23 26 29 38 42 43 40 38 37 36 34 30 28 26 29 29 28 27 27 28 30 30 32 32 31 30 28 24 25 26 29
44 38 34 22 20 18 22 23 21 16 15 20 20 20 24 27 31 44 52 60 66 67 67 67 66 67 67 68 67 67 66 62 57 51 47 44 37 36 40 40 38 36 38 42
56 50 49 40 38 21 20 21 16 17 19 14 18 20 22 22 31 37 48 65 70 79 80 81 82 78 74 78 81 84 87 87 85 81 69 61 49 44 49 51 54 53 52 58
77 58 60 44 40 35 27 26 20 17 15 16 13 18 21 24 29 35 45 55 65 71 74 70 70 69 61 61 68 72 76 77 75 72 70 67 65 60 59 63 62 63 70 75
78 90 72 62 46 50 28 20 15 17 14 14 17 14 13 19 24 28 36 41 55 67 65 65 65 66 66 60 54 53 51 57 68 66 71 77 76 79 74 71 73 76 75 76
74 90 90 76 73 58 43 33 20 17 13 9 12 13 13 13 18 24 31 35 37 45 53 59 58 53 56 53 51 52 53 51 50 62 74 82 88 89 93 94 90 89 86 82
82 82 85 95 86 49 41 44 28 17 16 10 7 10 10 11 13 20 27 36 40 41 43 46 51 51 51 54 54 53 54 58 60 58 61 82 86 92 92 95 94 94 91 89
88 94 93 87 89 93 69 32 33 19 14 13 8 6 9 10 11 14 22 30 40 45 48 50 53 55 54 57 59 49 48 58 69 77 80 76 82 89 92 96 96 98 98 95
95 82 89 82 90 75 64 48 37 22 14 11 11 7 7 8 9 11 13 18 25 35 43 48 48 46 47 49 48 50 45 48 59 66 75 85 86 86 89 92 93 96 97 99
93 95 87 97 84 86 71 45 43 29 21 12 9 9 7 8 8 8 10 12 17 24 29 32 37 41 44 46 48 50 52 52 51 55 59 68 83 86 85 88 92 95 95 95
84 91 98 100 87 87 91 71 63 36 22 14 9 8 7 7 8 8 9 9 11 15 21 25 28 28 28 30 30 33 37 44 51 51 50 52 57 63 80 86 90 94 93 91
73 80 100 98 88 88 91 71 80 52 26 14 9 8 7 7 7 8 8 8 9 10 15 19 23 24 28 26 26 28 26 25 29 34 39 44 48 53 57 78 88 90 93 94
78 85 96 100 92 89 80 74 90 62 25 14 8 7 7 6 6 6 7 7 8 9 10 13 16 19 21 19 21 20 19 20 20 22 26 35 46 54 59 71 76 82 90 92
76 84 98 99 94 90 87 75 85 53 27 13 8 6 6 6 6 6 6 7 8 8 9 11 12 16 16 19 18 18 17 19 22 24 27 33 42 56 60 64 73 82 86 88
70 83 100 96 94 85 84 86 76 49 24 13 7 6 6 5 5 5 5 6 7 8 8 9 11 13 16 19 19 20 21 24 26 27 30 36 41 49 60 72 76 76 76 79
70 84 95 97 84 88 92 88 72 38 16 10 7 6 5 4 4 5 5 5 6 7 8 9 10 12 16 19 21 22 24 25 27 28 30 31 36 41 49 59 64 66 67 68
79 87 91 93 85 83 87 76 65 25 12 7 7 5 4 5 4 5 5 5 6 6 7 8 10 11 15 19 23 23 25 26 27 31 34 37 41 44 48 52 52 54 59 61
77 91 90 85 87 87 79 64 41 17 8 5 6 5 4 5 5 5 5 5 5 6 7 8 9 10 13 17 22 25 26 28 30 31 31 32 32 34 36 39 41 43 45 46
76 90 81 85 87 85 80 51 19 10 6 5 4 4 4 4 5 5 5 5 5 5 6 7 8 9 12 14 19 23 27 30 32 32 31 31 30 28 28 30 30 30 30 29

GFSNGP_250_rhum_084.txt.gz
RH
8 9 12 16 18 20 19 19 20 18 16 15 15 15 15 17 19 19 18 18 19 18 20 24 28 30 26 23 22 24 26 26 27 28 28 27 27 28 29 29 28 28 29 30
11 10 10 12 14 18 20 21 21 19 20 18 16 15 14 16 18 18 18 18 18 18 17 17 19 22 25 25 24 24 25 25 26 26 27 29 30 30 31 31 31 32 32 32
10 10 10 10 10 13 17 18 21 23 22 21 20 19 17 15 13 15 20 20 18 17 17 17 16 16 16 16 18 19 20 22 23 26 28 29 31 31 31 32 33 34 34 33
13 11 11 12 12 12 11 14 18 19 21 24 28 28 23 18 18 17 18 19 19 19 19 19 18 17 16 17 17 17 17 17 18 19 20 21 22 25 27 29 28 27 26 25
16 19 22 21 16 14 15 15 15 14 16 20 20 22 31 35 33 29 25 22 21 22 21 20 20 20 19 19 20 21 21 22 22 24 26 26 24 24 25 25 24 23 21 21
21 20 16 18 18 19 16 13 15 16 15 16 17 20 20 22 26 31 34 34 34 33 31 28 27 27 27 26 26 25 24 23 21 20 19 20 19 19 18 18 17 17 17 17
36 34 31 20 16 22 25 22 18 14 14 15 16 16 17 20 21 24 27 28 32 36 39 43 43 45 47 45 37 33 33 29 26 24 23 23 23 23 23 22 20 21 24 23
40 38 44 43 33 24 18 17 19 22 22 16 14 15 17 18 18 19 22 26 27 28 27 29 31 32 32 34 32 29 27 25 24 26 26 26 26 24 24 24 24 25 27 26
48 41 38 38 44 43 33 24 19 17 14 16 20 16 18 20 21 23 24 24 28 30 32 31 28 27 26 25 24 24 24 24 23 24 24 25 25 25 26 26 27 27 27 27
62 52 53 45 44 44 42 43 38 24 18 18 14 15 18 15 20 23 27 31 36 34 36 42 42 40 38 36 35 40 41 34 35 37 37 35 37 42 49 50 49 46 37 33
69 76 68 60 55 61 48 30 42 39 25 19 16 12 11 14 16 16 21 27 34 40 40 46 50 52 55 57 62 69 72 70 68 70 70 71 71 73 75 72 71 66 58 47
62 66 74 61 71 68 58 45 34 32 32 18 13 12 10 9 12 15 15 20 29 41 52 56 57 66 68 71 73 78 80 82 83 81 76 73 75 79 83 80 76 71 65 63
72 67 68 66 73 67 74 97 57 51 40 25 17 10 9 8 8 11 14 15 21 29 43 60 63 66 72 70 75 83 82 78 77 73 69 67 72 76 79 78 71 72 73 72
78 95 70 72 68 78 83 82 73 57 41 51 21 12 8 8 7 7 13 14 15 20 30 37 49 56 62 66 69 72 74 72 72 72 69 67 69 69 66 62 70 75 83 84
82 89 87 72 78 72 86 74 94 55 59 53 37 18 8 7 7 6 7 13 14 15 20 30 36 45 51 55 59 60 67 67 62 64 63 61 64 68 70 67 68 82 84 88
88 77 92 83 75 77 76 84 92 69 61 54 35 23 12 7 7 7 6 8 12 14 15 22 32 40 42 51 55 56 62 66 63 60 63 66 62 63 72 77 81 87 89 89
93 85 92 97 82 75 79 94 91 80 64 48 48 29 16 9 7 7 7 7 8 11 14 15 20 31 40 48 55 57 55 58 59 61 63 70 71 71 79 82 88 89 86 84
86 94 87 96 86 79 81 91 95 89 74 73 50 31 17 10 7 6 6 7 7 8 9 13 18 28 37 44 50 56 56 52 54 62 65 70 73 72 70 68 76 84 84 85
85 99 84 100 93 72 84 95 94 85 83 84 49 37 17 10 7 6 6 6 6 7 8 9 12 16 23 33 40 47 50 53 54 55 61 69 70 71 71 70 70 67 73 82
79 99 85 100 94 71 80 90 90 96 75 72 65 35 16 9 7 6 6 5 6 6 7 8 9 10 13 19 26 31 36 38 42 47 48 45 46 50 53 56 60 58 58 64
90 95 92 100 86 76 76 82 89 91 77 71 64 34 14 8 6 5 5 4 5 6 6 7 8 9 11 14 17 22 25 29 31 31 28 27 27 27 32 38 43 47 53 61
94 86 100 97 92 78 78 79 87 89 74 88 59 31 13 7 6 5 4 4 4 5 5 6 6 8 10 11 12 15 20 20 24 27 25 20 20 21 23 27 33 42 55 62
81 94 99 87 90 74 74 79 89 83 80 76 52 23 10 7 5 4 4 4 4 4 5 5 6 6 8 10 11 13 17 20 20 22 20 20 21 24 27 30 33 38 47 57
85 92 92 91 93 72 70 78 87 60 67 70 42 16 8 6 5 4 4 4 5 5 5 4 5 6 7 8 9 11 14 19 21 23 23 24 26 26 29 31 34 40 46 52
97 90 92 96 90 78 76 72 85 76 65 55 28 11 6 5 4 4 4 4 5 5 5 5 5 5 6 7 8 11 14 17 21 23 28 30 28 28 33 39 44 46 48 50
79 81 92 92 79 70 71 78 90 77 51 35 14 8 5 4 4 4 5 6 7 7 6 6 5 5 6 7 8 10 13 16 21 25 32 33 31 32 38 42 45 50 53 55
80 85 87 75 77 70 79 83 84 68 35 20 8 6 5 4 4 4 6 7 8 8 9 8 6 6 5 6 7 8 11 15 19 23 30 36 41 38 33 36 41 44 46 48

GFSNGP_250_rhum_087.txt.gz
RH
10 11 16 18 22 20 16 16 17 16 14 13 14 14 14 14 13 14 15 18 21 21 19 19 20 20 22 24 24 27 33 37 38 37 35 34 31 30 31 31 31 32 34 37
11 11 12 16 19 22 25 25 22 20 20 16 16 16 17 18 17 16 16 15 16 16 17 17 18 18 19 20 20 24 28 30 31 33 34 34 35 35 33 32 32 31 30 30
13 15 14 11 11 12 16 22 27 29 24 25 22 20 20 20 20 19 16 14 14 16 16 16 17 18 17 17 16 18 19 20 22 24 25 26 27 28 29 31 32 32 33 33
19 14 14 14 15 16 13 11 13 18 23 28 31 28 24 22 21 19 18 18 18 17 16 16 16 16 17 16 16 15 15 15 16 17 18 19 21 22 23 24 25 27 28 30
36 27 21 22 20 18 14 16 17 14 12 13 19 24 28 30 28 26 26 25 22 19 18 18 17 16 16 17 16 16 15 14 14 14 15 16 16 16 17 18 18 19 19 18
39 41 32 45 46 40 32 24 20 16 15 16 13 12 16 22 24 24 26 26 26 27 27 24 22 20 18 17 19 20 21 21 20 20 22 22 22 22 20 19 19 19 18 18
56 47 43 49 45 46 53 52 39 29 21 17 15 17 15 13 14 19 24 25 26 28 30 30 28 28 28 27 26 25 26 27 26 23 21 21 21 20 18 17 17 16 16 17
45 52 55 54 49 54 53 54 57 50 41 26 21 17 14 15 17 13 14 19 26 28 30 33 36 37 39 40 39 37 34 34 32 29 27 25 24 24 26 27 26 26 27 26
61 58 63 65 55 56 52 51 47 49 48 46 32 21 16 15 13 12 15 13 15 20 24 28 32 34 34 34 35 37 35 35 36 36 34 33 33 31 28 25 23 22 21 21
72 65 67 71 77 72 74 67 64 57 53 37 39 33 23 16 12 12 12 12 14 13 15 19 25 31 33 36 35 35 34 32 30 29 28 28 27 27 27 27 25 25 26 27
62 65 68 66 77 68 85 80 77 54 63 57 36 31 26 23 14 10 8 8 11 14 16 14 19 25 33 40 44 47 51 48 46 42 40 40 43 45 44 44 48 53 57 65
66 70 65 69 74 66 81 67 77 80 60 62 42 31 32 22 18 11 7 7 7 10 12 17 18 21 29 39 49 59 59 55 52 54 60 65 69 72 69 68 67 65 64 66
69 72 76 66 81 75 90 75 75 89 89 78 71 43 36 23 16 12 8 6 6 7 9 12 19 22 30 36 47 52 58 60 65 65 67 75 80 79 73 72 70 67 64 62
80 66 83 70 80 75 83 88 70 79 86 73 95 59 36 27 20 13 9 7 5 6 7 9 13 24 26 29 38 48 55 64 71 79 79 82 83 85 85 82 82 72 67 65
75 67 76 69 78 85 79 91 85 76 90 85 90 72 44 36 28 15 10 7 6 5 6 7 8 15 26 28 29 37 51 60 65 77 82 79 83 88 88 86 78 78 75 69
66 66 75 66 86 86 78 90 80 95 80 99 93 89 56 35 29 17 10 7 6 6 5 6 6 8 16 24 28 32 37 42 55 65 66 73 77 80 83 85 84 80 73 76
64 71 72 73 86 85 91 98 89 95 80 100 92 97 59 37 34 20 11 7 6 6 6 6 6 6 8 15 22 29 33 33 36 45 55 60 67 74 79 86 88 82 83 85
68 81 73 80 88 85 97 89 94 88 92 100 91 91 67 49 35 22 11 7 6 6 6 5 6 6 6 7 12 20 32 39 43 48 56 64 72 74 78 83 89 91 88 86
74 79 80 95 83 89 92 90 87 94 93 99 81 94 87 55 32 20 10 7 6 6 6 5 5 6 6 6 8 10 18 32 37 49 59 69 79 84 85 86 87 87 87 87
74 83 91 96 81 87 90 94 94 94 97 91 99 82 64 40 32 17 9 6 6 5 5 5 5 5 6 6 7 9 11 18 28 36 47 57 64 70 74 75 81 81 82 85
81 91 93 85 78 93 89 98 82 93 93 96 93 78 70 36 30 14 8 6 5 5 5 4 4 4 5 6 6 8 10 13 16 22 29 34 40 47 57 62 65 64 57 55
97 95 82 88 80 86 84 92 84 82 86 92 83 66 66 30 24 12 6 5 5 4 4 4 4 4 5 5 6 6 7 10 13 15 19 24 29 34 38 38 37 36 33 33
94 83 81 87 88 87 84 87 84 83 82 90 72 82 41 24 18 8 6 5 5 4 4 5 5 4 5 5 6 6 6 8 10 12 14 16 20 23 24 21 22 23 22 22
86 80 92 91 88 96 82 80 83 70 79 86 66 66 32 23 12 6 6 5 4 4 4 6 7 7 6 6 5 6 6 6 8 10 14 16 17 20 22 23 21 22 23 25
90 94 93 88 89 76 85 69 79 66 81 76 69 37 23 17 9 5 4 4 4 4 4 6 7 8 8 7 6 6 6 6 7 9 13 15 16 18 20 21 22 27 26 30
90 84 95 76 81 75 75 65 64 68 66 68 54 26 20 12 6 5 4 4 4 4 6 7 8 8 8 8 7 7 6 6 7 8 11 15 16 18 21 22 30 32 33 38
91 94 82 78 76 68 68 56 68 62 63 67 50 20 14 7 5 4 3 4 5 7 8 8 9 9 9 8 8 8 7 6 6 8 10 12 14 17 21 24 33 37 37 37

GFSNGP_250_rhum_090.txt.gz
RH
11 10 11 14 16 23 24 25 23 20 19 21 20 18 16 16 15 14 13 15 18 18 17 18 23 31 41 50 51 51 50 50 74 100 100 100 100 95 76 72 74 74 72 66
16 17 15 13 12 13 18 22 26 31 26 24 24 22 20 20 19 19 20 19 17 16 16 14 15 16 19 22 27 33 41 46 46 44 41 40 48 78 100 100 100 100 100 100
19 17 18 18 19 20 16 13 14 16 17 20 22 24 24 20 16 13 12 13 13 15 15 14 13 13 12 13 15 16 18 20 23 26 28 31 34 36 39 40 39 38 38 39
37 34 41 31 25 22 21 22 22 20 16 15 15 15 14 15 16 17 18 17 15 13 13 15 16 16 16 15 15 17 18 18 20 20 22 24 25 26 27 28 30 30 31 31
46 43 50 52 49 42 35 31 28 24 21 20 20 17 15 15 17 18 16 15 15 15 15 13 12 13 14 14 14 15 16 17 18 19 20 21 22 24 25 26 26 27 28 28
48 48 43 54 52 47 50 55 57 50 47 30 23 17 17 19 18 15 14 16 18 19 17 16 16 16 16 16 15 15 16 17 16 17 18 17 17 18 18 18 18 19 19 19
52 46 42 47 48 49 49 54 54 56 56 59 56 43 35 27 20 15 15 17 15 15 17 20 22 22 21 20 18 17 18 19 20 19 18 18 18 18 19 18 17 18 19 18
55 57 51 50 58 58 63 58 51 47 50 51 47 49 53 44 34 26 19 14 14 14 17 15 17 18 20 23 25 25 23 22 23 23 23 20 19 19 19 20 19 17 16 15
58 64 58 61 67 68 63 65 65 71 64 57 39 41 41 48 38 35 27 23 17 13 12 12 16 16 15 19 20 22 24 25 26 27 29 30 28 27 28 27 25 25 26 27
63 69 60 59 64 68 76 72 75 83 92 68 73 57 43 40 37 29 27 23 16 15 12 10 10 12 16 16 17 22 24 28 32 35 40 45 44 41 39 37 34 30 30 27
66 64 70 59 62 75 68 78 80 79 82 92 76 80 70 48 45 48 29 23 17 13 11 9 7 7 10 15 17 18 22 31 36 40 42 44 44 44 43 38 37 34 31 29
55 68 65 62 65 69 74 80 82 82 88 83 87 82 81 67 42 46 38 22 17 12 8 7 7 6 7 8 14 20 23 24 30 38 42 46 48 52 53 54 52 49 45 46
55 66 66 70 73 76 72 80 93 88 85 76 93 100 88 88 56 42 40 30 17 11 8 6 6 6 6 6 9 16 21 28 29 31 37 46 56 58 60 63 63 69 70 77
54 58 71 70 77 75 76 76 93 87 84 82 87 97 97 85 74 44 46 34 21 12 7 6 5 5 5 6 8 12 17 24 33 35 38 42 46 57 65 67 79 86 88 88
56 58 65 67 79 74 79 81 82 83 88 84 79 99 93 84 76 57 45 35 23 13 8 6 5 5 5 5 6 8 10 16 26 37 40 43 45 54 67 73 79 87 88 88
58 59 65 65 77 75 82 82 84 76 95 79 78 84 86 90 82 57 45 36 24 15 7 6 5 5 5 5 5 6 7 8 13 24 39 40 44 54 68 75 83 87 90 89
55 60 65 65 78 81 82 89 83 77 87 85 79 87 78 85 89 54 51 41 23 15 7 6 5 5 5 5 5 5 6 6 8 13 27 38 45 51 59 66 74 86 89 87
55 63 63 67 77 84 80 90 83 79 82 82 77 82 83 91 80 66 53 42 23 14 8 6 5 5 4 4 5 5 6 6 7 8 15 27 37 45 54 65 67 69 75 82
60 62 59 74 86 91 87 89 82 76 85 84 79 70 84 89 85 63 49 39 24 12 7 6 5 5 4 4 4 4 5 6 7 7 8 15 27 42 48 53 63 67 70 75
62 60 69 78 80 89 90 81 76 88 81 84 71 78 91 77 74 58 47 31 22 10 7 6 5 4 4 4 4 4 5 5 6 8 8 10 15 25 32 44 53 56 63 71
65 60 73 79 89 95 81 78 87 79 75 79 65 72 79 82 72 64 36 29 16 9 6 5 4 4 4 4 5 5 4 5 5 6 8 9 13 18 24 33 40 48 57 68
65 74 88 83 84 93 83 81 83 69 73 66 65 78 82 71 63 51 25 22 12 6 5 4 4 3 4 4 6 6 5 5 5 6 8 9 10 13 16 18 22 31 41 48
72 77 84 84 84 82 80 74 88 73 79 71 65 71 72 64 54 35 23 14 8 6 4 4 3 4 4 5 6 7 8 7 6 6 7 8 9 11 14 18 24 30 37 44
83 76 88 88 88 86 82 73 74 76 66 58 68 72 64 55 36 20 17 10 5 4 4 3 4 5 6 6 7 8 8 8 8 7 7 8 9 10 12 16 20 26 27 28
70 80 87 93 87 86 79 80 67 70 60 61 61 68 61 50 29 16 11 6 4 4 3 4 6 6 6 7 8 9 9 9 9 8 7 7 8 9 11 14 16 18 21 20
77 89 84 84 74 76 72 68 71 56 52 61 57 66 59 33 20 13 7 4 4 3 3 5 6 6 6 6 8 9 10 10 10 10 8 7 8 8 10 12 13 16 20 22
88 96 82 72 67 77 67 69 63 48 52 55 62 63 36 24 10 7 5 4 3 3 5 6 6 6 7 7 7 8 9 9 9 10 9 8 7 8 9 11 13 16 20 23

GFSNGP_250_rhum_093.txt.gz
RH
11 11 12 13 12 14 18 22 23 24 24 27 29 30 32 32 30 26 22 17 20 43 53 58 78 92 100 100 100 100 100 100 100 100 100 100 100 100 100 97 99 100 100 100
17 16 16 16 15 16 19 19 17 16 17 19 21 26 27 30 33 30 22 18 15 16 19 31 47 56 66 95 100 100 100 100 100 100 100 100 100 100 100 100 100 100 100 88
24 25 28 23 25 25 23 22 20 18 20 22 21 19 18 17 17 16 15 17 18 16 13 13 17 26 39 47 52 63 72 80 91 98 100 100 100 100 99 99 99 98 97 95
37 46 54 44 43 39 34 33 35 32 29 28 24 20 19 22 26 23 19 16 14 12 13 13 13 12 13 16 22 32 41 48 52 56 60 70 83 94 100 99 100 100 99 97
38 41 42 45 51 50 46 56 55 51 49 52 47 47 45 37 27 21 19 19 22 21 16 13 11 10 11 12 13 12 14 20 28 35 39 44 50 54 58 58 57 54 52 50
50 46 49 53 46 48 44 44 45 46 46 56 56 46 36 31 30 33 34 29 18 15 15 14 16 18 15 12 11 12 12 13 13 14 16 18 21 23 25 25 24 22 21 20
59 59 57 54 60 64 58 56 51 50 49 50 56 51 50 58 51 44 37 29 25 24 23 17 12 13 13 14 16 16 13 11 12 13 14 15 16 16 17 18 18 18 19 21
56 59 59 58 60 64 62 60 56 62 62 54 47 54 51 50 42 42 45 47 40 28 21 20 19 18 14 10 12 12 12 15 17 16 14 16 17 16 16 17 19 19 20 21
52 51 52 63 66 64 66 70 68 77 66 67 73 58 66 68 63 59 50 37 33 35 31 23 19 16 13 12 12 10 10 13 14 14 17 20 23 22 22 21 20 20 21 22
58 63 62 56 58 65 72 79 76 79 74 69 64 63 62 84 80 63 58 60 46 34 30 27 22 15 13 10 8 8 9 9 11 15 18 20 24 30 33 35 35 36 34 32
61 62 62 65 64 63 70 85 77 78 75 71 77 73 72 74 68 78 71 74 60 47 36 30 20 14 10 9 7 6 6 7 8 10 15 20 24 28 34 39 43 44 43 42
56 57 65 64 68 65 77 83 83 78 78 75 76 66 74 83 80 84 70 76 65 50 43 30 22 13 8 7 7 6 5 6 6 7 9 15 22 27 34 35 40 46 47 47
56 54 57 64 65 73 76 82 82 76 79 78 77 68 76 81 89 89 81 83 62 52 41 28 21 12 8 6 6 5 5 5 6 6 7 9 14 25 34 40 44 46 54 60
64 54 54 58 66 67 72 86 82 83 77 76 76 76 71 69 85 95 76 62 66 53 43 33 23 12 7 5 5 5 5 5 5 5 6 7 11 20 36 48 55 58 61 68
69 63 57 57 65 72 82 79 77 82 84 76 76 80 70 71 97 95 84 60 64 48 38 31 23 12 7 6 5 4 5 5 5 5 5 7 10 15 28 46 56 63 68 71
72 63 57 55 67 70 78 73 69 82 93 89 75 76 71 74 73 96 87 59 67 42 42 28 21 13 7 6 5 4 4 4 5 5 5 6 8 11 19 35 48 58 61 66
73 64 57 58 68 73 69 71 66 80 90 80 78 83 68 62 66 95 75 54 60 36 40 27 19 13 7 6 5 4 4 4 4 4 5 5 6 8 12 22 38 51 62 69
71 62 59 64 72 68 67 69 70 82 99 73 78 77 70 74 64 82 75 48 49 28 28 20 14 10 6 5 5 4 4 4 4 4 4 5 6 7 8 14 25 42 56 70
68 62 62 67 69 66 63 64 73 78 78 73 77 71 75 72 72 74 65 47 42 28 21 14 9 7 5 5 4 4 4 4 4 4 4 4 5 6 7 9 15 31 45 60
67 65 61 70 66 61 59 66 75 70 74 74 70 60 75 69 65 68 69 48 38 28 15 9 6 5 4 4 3 3 3 4 4 5 4 4 5 5 6 8 10 17 34 54
69 67 66 67 68 63 58 61 64 64 70 73 70 57 70 64 62 68 57 49 32 24 12 6 5 4 3 3 3 4 4 4 4 6 6 5 5 5 6 8 10 15 24 38
69 70 79 83 74 62 62 67 70 78 82 76 59 58 53 66 60 72 50 46 26 16 8 5 4 3 3 3 4 5 6 6 6 6 7 7 5 6 6 8 9 11 17 25
72 82 93 78 64 68 72 70 71 76 81 66 60 55 64 62 62 68 45 31 17 12 5 4 3 3 3 4 6 6 6 6 7 7 8 8 7 6 6 8 9 11 14 18
74 71 84 81 75 81 80 82 72 74 83 65 55 55 63 61 58 46 42 24 16 7 4 3 3 3 4 6 6 6 6 6 7 8 9 9 9 8 7 7 8 11 13 16
82 81 79 80 82 80 83 79 82 67 70 60 51 59 61 64 56 38 29 16 10 4 4 3 3 4 6 6 6 6 7 7 7 8 10 10 9 10 8 8 8 10 12 15
83 86 78 78 75 83 85 83 86 71 63 56 47 54 59 54 47 34 22 11 7 3 3 3 4 5 6 6 6 6 7 7 7 8 9 10 10 10 10 9 8 8 10 12
98 90 81 73 81 85 96 97 80 66 55 49 47 54 58 46 34 31 13 9 4 3 3 4 5 6 6 7 6 6 6 7 7 8 9 10 10 10 10 10 9 9 10 11

GFSNGP_250_rhum_099.txt.gz
RH
7 8 10 13 18 20 27 33 36 38 46 55 55 76 76 97 100 87 93 100 100 100 100 100 100 100 100 100 100 100 100 100 100 100 100 100 100 100 100 100 100 100 100 100
9 10 13 12 12 13 15 19 19 21 21 25 30 40 66 76 97 100 100 91 98 100 100 100 92 100 100 100 100 100 100 100 100 100 100 95 87 100 100 100 100 100 100 100
16 16 15 15 16 17 16 17 15 16 16 16 15 14 20 39 67 86 100 98 79 79 88 85 99 100 100 100 100 100 100 100 100 100 100 100 86 89 100 100 100 100 95 94
24 26 26 24 26 27 25 19 20 20 21 21 21 20 19 18 24 36 56 86 95 100 98 94 93 92 95 95 100 100 100 83 87 97 92 91 82 90 92 91 96 94 91 87
32 33 35 35 29 36 42 44 46 50 44 42 37 34 35 30 26 22 19 20 35 68 99 100 100 94 79 80 84 90 93 81 87 69 62 65 88 90 86 79 79 74 74 76
40 42 44 43 41 43 42 47 48 43 44 46 48 43 42 46 44 41 46 48 38 28 25 42 68 85 96 79 86 84 66 56 54 51 50 50 57 53 66 69 66 61 64 64
52 50 50 49 46 53 51 56 56 55 58 55 54 57 54 46 37 37 43 44 44 43 40 40 40 36 33 31 30 26 25 24 21 21 39 55 55 57 57 61 69 61 68 80
59 58 57 58 56 53 51 51 52 50 46 54 56 58 61 58 56 52 56 51 48 38 36 37 40 39 31 27 26 27 27 26 26 25 22 20 17 16 16 18 18 35 53 70
64 64 66 64 60 62 60 56 58 63 62 58 62 67 61 55 65 60 65 75 63 54 53 50 42 40 31 28 27 24 24 21 17 14 14 16 15 13 14 13 14 15 14 14
65 69 70 72 68 72 67 63 61 63 68 66 65 72 74 76 77 72 65 65 64 64 54 54 48 42 37 36 32 27 23 15 12 10 7 8 10 9 8 8 9 11 12 14
75 69 69 72 73 67 72 67 63 66 64 67 66 69 71 71 72 65 85 64 60 70 59 55 52 48 41 37 33 32 30 21 10 7 6 6 7 8 7 6 6 7 7 11
86 85 81 74 72 80 77 75 74 72 66 63 69 71 74 85 82 83 71 76 60 69 59 59 59 51 46 37 32 32 24 18 10 6 5 6 6 6 5 4 5 6 6 8
89 90 88 83 75 78 87 78 76 77 72 66 63 70 76 94 83 86 68 78 62 59 62 54 54 55 42 36 30 22 16 10 6 5 4 4 5 5 4 4 4 4 5 6
85 86 84 82 78 77 79 77 80 81 78 69 65 64 70 79 87 81 72 78 59 54 67 62 55 47 36 32 25 18 10 6 4 4 4 4 4 4 4 4 4 4 5 6
78 78 82 80 76 78 79 86 83 80 71 63 63 64 65 71 77 79 65 59 52 46 59 60 53 44 38 31 22 12 7 4 3 3 3 3 3 3 3 4 4 4 4 6
76 77 73 75 73 72 73 73 71 62 65 63 62 64 63 69 68 66 62 59 53 45 58 60 50 41 36 24 17 8 5 4 3 3 3 3 3 3 3 3 3 3 4 5
75 77 74 70 73 70 68 69 70 64 66 70 72 71 72 65 70 61 62 62 56 53 52 52 53 35 30 20 11 5 4 3 3 3 3 3 3 3 3 3 3 3 3 4
83 88 82 73 71 73 70 67 67 69 68 76 75 80 78 65 69 64 61 57 52 53 53 52 42 37 24 19 8 4 4 3 3 4 4 5 5 5 4 4 4 3 3 4
100 99 87 90 92 91 77 75 71 74 67 68 75 74 68 63 64 61 55 53 44 48 53 51 39 27 24 14 6 4 4 3 4 5 5 5 6 6 6 6 6 5 4 4
100 100 95 98 94 93 93 87 83 79 77 72 65 63 66 64 62 59 56 52 44 46 51 52 40 29 21 10 5 4 3 4 5 5 5 6 6 6 6 6 6 6 6 5
100 100 100 100 94 99 100 98 88 83 86 76 67 65 67 60 61 60 53 52 46 42 45 46 37 25 16 7 4 4 4 5 5 6 6 6 6 6 6 6 6 7 7 6
100 100 100 100 100 100 100 92 89 79 72 72 66 62 61 60 61 55 52 50 46 40 48 44 32 25 17 6 4 4 4 5 6 6 6 6 6 6 6 6 6 7 7 7
100 100 100 100 96 90 99 96 83 70 67 70 70 61 62 62 60 52 55 49 46 45 44 40 31 29 15 5 4 4 5 6 6 6 6 6 6 6 6 6 6 7 8 8
100 100 100 100 100 89 80 78 78 75 74 72 69 65 64 61 59 50 52 47 46 44 43 41 33 24 10 4 4 4 5 6 6 6 6 6 6 6 6 6 6 7 8 9
100 100 100 100 100 100 89 83 78 77 76 67 71 67 60 57 54 51 51 49 43 42 39 37 25 18 6 4 4 5 5 5 6 6 6 6 6 6 6 6 6 7 8 10
100 100 100 100 100 100 96 96 85 79 81 74 74 68 64 55 53 51 50 45 46 46 42 34 23 10 5 4 4 5 5 4 5 6 6 6 6 6 6 6 6 7 8 9
100 100 100 100 100 100 100 97 89 82 79 80 73 75 65 58 53 51 48 46 46 44 43 26 18 6 4 4 5 5 4 4 4 6 6 6 6 7 7 7 7 8 8 9

GFSNGP_250_rhum_102.txt.gz
RH
8 9 12 26 43 58 74 95 81 99 100 98 96 54 95 100 100 100 100 100 100 100 100 100 97 100 99 91 100 100 100 100 100 100 100 100 100 100 100 97 100 100 100 100
12 11 11 12 15 23 40 56 61 59 68 73 79 51 80 100 88 100 100 100 100 100 100 100 100 100 100 100 100 100 100 100 100 100 100 100 100 100 100 100 100 100 100 100
12 14 15 14 14 13 14 15 13 21 20 19 30 30 38 74 87 69 95 67 78 89 97 100 97 90 100 97 100 100 100 100 100 100 100 100 100 100 100 100 100 100 100 100
17 17 15 16 15 16 19 19 19 19 21 23 23 30 47 41 90 79 62 53 47 63 75 74 88 94 95 87 90 98 94 89 100 90 93 90 95 100 100 100 100 100 100 100
25 26 26 25 26 27 27 27 26 24 24 22 20 19 19 26 44 58 89 99 93 92 99 90 82 72 77 85 95 100 100 100 100 100 100 100 100 100 100 93 100 96 100 100
33 37 43 42 38 35 32 34 33 36 39 39 42 41 37 34 31 29 31 69 98 100 100 100 97 91 100 100 100 100 100 89 90 100 99 89 81 78 70 71 59 56 57 55
44 44 44 42 39 36 36 35 40 43 42 44 43 46 46 49 48 49 51 49 47 42 39 41 56 85 98 100 100 98 96 100 93 93 89 84 82 80 80 80 76 75 56 49
52 52 52 48 45 46 46 46 45 50 52 49 45 48 50 50 53 47 48 46 39 36 40 40 41 44 44 43 34 33 40 42 42 40 39 35 34 34 32 26 23 17 19 24
63 62 63 58 56 55 54 53 51 51 53 54 51 47 54 53 54 51 57 55 54 46 52 47 41 32 29 26 28 26 24 26 25 25 21 19 20 18 16 14 15 17 18 26
64 64 64 64 65 64 62 60 57 56 58 61 61 64 66 69 66 68 64 55 53 48 45 48 46 43 39 36 37 33 29 28 24 18 12 9 7 6 6 5 5 5 8 10
82 77 76 77 81 79 80 76 70 64 61 60 61 60 62 66 70 66 67 60 58 58 52 52 48 46 46 46 45 45 37 37 29 19 10 6 5 4 4 4 4 4 4 4
85 90 89 86 78 81 82 78 85 81 79 70 60 62 66 65 66 66 68 66 70 63 56 50 48 48 51 51 50 45 38 38 26 15 7 4 4 4 3 3 3 3 3 4
76 75 79 83 82 80 80 77 73 78 76 69 63 66 64 68 65 69 73 66 71 66 59 49 49 47 52 51 49 48 46 33 19 9 5 4 3 3 3 3 3 3 3 3
81 81 80 75 76 77 79 78 74 73 66 72 70 70 74 75 82 78 74 66 61 59 56 56 50 49 52 50 49 44 43 29 15 6 4 3 3 3 3 3 3 2 3 3
64 67 78 80 77 76 75 73 74 72 73 74 74 79 79 85 80 77 66 62 62 56 52 55 47 49 49 53 42 41 40 22 10 5 4 3 3 3 4 4 4 4 3 2
77 74 63 65 71 76 76 76 75 74 71 70 72 68 68 69 71 68 64 62 57 57 51 54 45 49 47 53 43 36 35 17 7 4 4 3 4 4 5 5 5 5 5 4
98 93 89 72 70 68 74 79 84 94 93 88 83 77 74 71 73 66 64 58 56 55 50 50 47 46 48 43 42 35 30 14 6 4 4 4 4 5 5 6 6 6 6 6
100 100 100 100 98 91 92 77 77 83 98 93 92 92 87 81 72 63 62 58 58 56 50 48 49 43 48 43 37 34 25 11 5 4 4 4 4 5 5 6 6 6 6 6
97 100 100 100 100 100 100 100 96 95 99 96 97 95 89 80 70 65 64 59 58 56 52 47 50 46 50 42 33 29 22 8 4 4 4 5 5 5 5 6 6 6 6 6
77 98 100 100 99 100 100 100 100 97 89 84 82 77 75 72 71 68 64 59 58 55 52 51 47 46 45 44 31 28 17 6 4 4 5 5 5 5 5 5 6 6 6 6
95 82 91 100 100 100 100 100 100 100 100 98 84 76 73 72 66 66 62 63 59 58 55 54 50 48 51 42 31 26 11 5 4 4 5 5 4 5 5 5 5 5 6 6
94 91 78 72 100 100 97 99 100 100 100 97 88 79 76 77 72 68 60 67 62 62 56 57 56 47 46 42 30 23 7 5 4 5 5 4 4 4 5 5 5 5 5 5
96 100 100 89 76 97 95 93 100 100 100 99 92 87 81 74 74 73 68 67 63 64 61 52 50 47 47 39 30 17 5 5 5 5 5 4 4 4 5 5 5 5 5 5
88 100 100 100 97 91 86 85 97 100 100 100 96 95 92 91 75 72 74 76 66 67 65 51 48 50 50 43 30 12 5 5 5 5 4 4 3 4 5 5 5 6 6 5
98 100 100 100 100 100 84 76 88 100 100 100 95 97 91 87 88 80 86 75 67 68 64 50 48 51 50 42 27 9 5 5 5 4 4 4 3 3 5 6 5 6 6 6
84 99 100 100 100 100 96 81 85 100 100 100 85 94 100 93 87 77 78 68 72 80 64 51 48 49 50 38 22 6 5 5 5 4 4 4 3 3 4 6 6 7 7 6
96 90 90 94 100 100 100 88 92 100 100 100 86 89 100 100 85 78 69 76 77 81 59 48 49 49 47 32 16 6 5 5 4 4 4 4 4 4 4 6 6 7 8 8

GFSNGP_250_rhum_105.txt.gz
RH
7 10 20 30 41 41 51 70 79 90 76 36 100 100 100 100 100 100 100 100 100 100 100 100 100 100 100 100 100 100 100 100 100 100 98 94 100 100 100 99 100 100 100 100
7 8 12 14 26 35 38 44 53 62 79 54 40 100 100 100 92 100 100 100 100 100 100 100 100 100 100 100 100 100 100 100 100 100 100 100 100 100 100 100 100 100 100 100
14 14 13 15 15 14 16 16 18 28 22 26 22 27 57 72 76 67 64 63 70 92 87 100 100 95 100 100 100 100 100 96 99 100 100 100 100 100 100 100 100 100 100 97
13 15 14 15 17 18 22 20 25 28 30 35 29 24 39 33 46 57 56 72 78 73 86 87 94 100 100 100 100 100 100 100 100 100 96 100 100 100 100 100 100 99 100 100
21 20 20 18 17 16 15 16 17 18 18 21 27 38 51 55 39 53 72 60 66 64 59 79 84 94 100 100 99 99 100 100 100 100 100 100 98 95 100 100 100 100 100 100
29 30 29 28 27 25 25 26 24 29 30 27 20 19 20 28 70 100 97 86 84 84 75 79 72 86 79 83 96 99 100 100 100 98 100 99 96 77 100 89 74 88 82 84
35 35 38 40 41 36 32 35 36 36 35 34 34 42 44 38 34 41 62 61 87 84 82 87 88 88 94 93 88 90 94 96 88 100 98 99 97 84 72 81 77 69 52 54
49 46 46 48 45 44 43 47 48 51 44 40 40 46 50 46 46 48 44 44 40 39 38 44 49 47 48 44 39 44 42 39 35 37 42 45 48 44 39 35 36 41 34 28
57 58 54 54 52 50 47 46 46 45 46 46 41 42 40 41 40 42 43 42 41 40 46 42 42 46 45 42 41 40 41 38 37 36 34 33 32 30 27 23 17 18 22 22
70 68 67 64 60 58 56 55 54 53 53 54 57 55 48 49 51 52 49 49 45 44 42 40 41 44 44 43 43 44 43 41 39 37 34 33 26 19 13 10 7 6 5 4
88 84 79 76 78 74 69 66 65 63 62 57 50 48 47 50 51 50 52 49 51 52 50 49 47 48 49 48 47 46 48 45 48 41 34 34 29 18 10 6 4 3 3 3
78 77 84 85 82 77 74 70 66 64 65 62 56 57 60 60 64 61 60 66 67 62 61 59 56 57 55 57 55 53 54 55 57 49 48 45 33 21 7 4 3 3 3 3
81 79 78 77 79 80 81 82 75 71 72 70 68 66 66 65 69 62 69 66 69 69 68 65 61 59 56 57 57 52 56 61 58 48 48 42 28 11 5 3 2 2 3 3
69 68 73 79 77 76 80 82 80 77 75 74 71 72 71 74 71 72 73 76 77 73 67 67 64 61 59 60 64 54 58 62 64 54 44 38 21 6 4 4 3 2 3 4
76 65 64 66 63 71 77 80 82 85 90 93 93 95 92 82 87 92 88 88 83 78 72 67 64 60 60 66 65 55 58 61 70 60 44 30 12 5 4 4 4 4 4 4
100 100 88 83 72 67 71 76 76 80 75 75 71 78 95 93 98 99 92 78 74 74 70 68 58 55 59 71 66 69 60 58 60 49 34 19 7 4 4 4 4 4 4 5
80 86 100 100 100 95 82 82 97 91 90 94 91 91 98 98 89 90 86 81 74 73 71 68 64 62 68 70 67 70 58 57 58 45 28 13 5 4 4 4 4 4 4 5
75 73 77 83 99 100 100 100 93 95 100 100 100 100 100 100 96 95 97 92 87 81 76 72 71 66 63 65 70 74 65 59 58 45 27 9 5 4 4 4 4 4 4 5
100 97 81 76 82 92 88 91 98 100 99 100 100 100 100 100 100 100 100 99 96 86 82 72 69 65 65 67 73 67 66 58 56 45 24 8 5 4 4 4 4 3 4 5
90 96 95 99 80 77 86 93 97 85 97 100 98 98 100 100 100 98 100 94 94 85 83 84 74 70 68 66 74 72 65 55 56 43 22 6 5 5 4 4 3 3 4 5
70 85 93 86 94 97 99 92 78 85 88 96 91 96 89 87 87 100 100 97 84 87 86 81 74 71 79 71 72 70 67 59 52 42 20 6 5 4 4 4 3 3 3 5
59 62 75 98 96 90 100 100 99 92 89 92 99 98 93 80 76 91 99 99 96 85 89 84 77 74 82 73 75 73 66 60 54 38 16 6 5 4 3 3 3 3 3 5
70 59 66 91 100 100 100 100 100 100 100 94 98 99 100 100 91 84 100 100 97 93 85 78 72 74 83 81 75 69 61 59 58 41 13 6 6 4 3 3 4 3 3 5
99 77 64 74 100 100 100 100 100 100 100 96 95 100 100 100 93 96 100 99 92 98 83 76 72 78 83 85 76 61 59 60 58 35 11 6 6 4 4 3 4 4 3 5
99 98 73 66 80 100 100 100 100 100 99 97 100 100 100 100 95 98 100 100 100 100 88 75 71 87 82 85 65 61 61 64 59 30 10 6 5 4 4 3 4 4 4 5
78 96 94 83 72 84 98 100 100 100 99 100 100 100 100 100 100 97 99 91 98 96 84 80 76 91 86 71 56 65 65 66 60 24 8 6 5 4 4 4 4 4 4 5
33 74 94 92 78 75 77 92 100 100 100 100 100 100 100 100 100 99 100 96 94 92 83 78 81 84 81 57 60 66 66 64 54 19 7 6 5 4 4 4 4 4 4 5

GFSNGP_250_rhum_108.txt.gz
RH
12 20 26 32 59 58 58 73 73 63 82 94 74 66 92 100 100 100 100 100 100 100 100 100 100 100 100 100 100 100 100 100 100 100 100 100 100 100 100 100 100 100 100 100
13 20 29 35 56 75 65 51 100 95 100 100 100 79 80 82 100 98 100 100 100 100 100 100 100 100 100 100 100 100 100 100 100 100 100 100 100 100 100 100 100 100 100 100
17 19 21 26 23 25 36 37 35 96 87 77 66 71 69 84 89 80 100 99 100 100 97 98 95 99 98 100 100 100 100 94 100 100 100 100 100 100 100 100 100 100 100 100
17 20 19 24 26 34 38 40 40 35 50 53 57 57 42 44 54 57 76 81 96 98 99 100 100 100 100 100 100 100 89 82 80 91 92 97 100 95 95 94 100 100 100 100
20 18 15 14 14 15 14 16 23 34 49 63 71 81 67 51 54 64 79 85 93 88 91 92 91 99 97 99 100 96 91 100 91 99 100 98 98 91 95 99 99 100 100 100
29 28 29 30 26 26 24 20 17 15 17 24 33 41 62 76 84 96 98 94 97 94 96 74 78 92 99 89 88 90 96 100 100 100 100 99 99 100 100 100 100 98 98 94
39 37 33 36 36 37 37 34 34 32 31 32 31 28 26 29 38 56 73 90 96 99 98 89 85 85 93 86 87 80 71 67 58 53 55 55 63 79 66 66 71 63 58 65
46 44 43 44 45 44 41 42 43 43 41 40 41 40 43 41 44 48 54 60 59 54 50 46 39 41 41 42 39 42 44 42 38 38 42 42 38 38 42 43 41 39 36 35
58 58 55 57 56 55 58 58 56 58 57 56 57 56 54 50 53 52 49 45 45 43 43 46 43 43 45 47 53 51 51 51 52 52 48 46 44 40 38 35 34 31 28 23
67 64 62 59 57 56 55 55 55 53 52 50 50 47 46 48 50 48 46 47 50 50 48 50 51 52 51 50 48 49 50 55 56 53 51 61 53 56 51 56 42 34 22 11
87 85 83 79 76 70 68 65 63 63 63 59 52 49 49 49 50 48 48 50 50 46 43 41 44 45 47 49 48 49 54 62 62 72 73 69 65 65 71 69 49 38 18 7
78 74 74 77 79 81 81 79 76 73 69 67 64 60 56 54 48 49 51 54 48 46 43 40 43 48 55 55 58 59 65 61 67 71 72 71 73 72 74 63 47 27 8 4
65 69 70 69 70 70 70 74 78 74 72 73 69 64 61 59 60 60 59 52 54 59 64 68 68 75 76 68 64 65 62 67 70 67 73 74 73 76 80 72 45 16 5 4
59 63 64 63 69 69 71 70 72 76 80 81 74 70 68 63 60 62 60 67 69 80 81 69 70 80 72 75 65 62 63 67 74 69 77 68 76 80 74 62 46 14 5 4
75 73 76 69 70 74 78 78 75 71 72 76 79 71 70 64 67 74 80 83 85 87 79 74 70 74 76 76 68 68 68 68 72 69 74 72 75 85 68 48 26 8 6 4
82 79 70 74 64 62 69 68 76 91 89 86 81 74 84 86 84 88 98 99 96 94 83 82 79 80 76 78 77 71 70 71 71 72 79 82 77 79 65 41 18 6 5 4
75 71 70 83 73 70 66 66 67 72 85 91 86 80 98 100 100 100 100 84 89 100 100 99 79 82 92 89 88 79 73 75 73 74 86 68 78 73 65 38 14 6 5 4
75 69 77 78 75 76 79 77 69 66 71 79 84 88 85 94 98 100 94 97 100 99 99 98 100 98 81 86 94 85 77 83 74 74 82 72 72 68 60 34 9 6 5 4
76 64 65 78 80 88 98 95 96 88 76 80 88 96 100 100 100 99 100 100 100 97 90 86 83 87 90 94 97 84 81 84 79 79 82 70 70 63 55 29 8 6 4 4
86 86 70 67 64 69 88 91 88 100 100 98 95 99 100 100 100 100 100 100 100 99 99 95 94 100 100 100 93 81 79 87 81 85 83 66 69 61 51 26 7 6 4 4
54 98 97 73 74 72 66 69 80 87 94 100 100 99 94 91 99 100 99 95 99 100 99 96 100 99 99 89 91 84 82 90 86 83 88 67 70 59 46 21 7 6 4 4
24 34 56 97 95 78 82 86 71 68 78 84 100 100 100 98 95 91 85 82 94 93 92 98 99 97 90 93 85 86 89 92 87 90 79 73 70 62 45 21 7 5 5 4
15 20 30 31 55 90 92 94 97 92 77 69 85 96 100 100 100 100 86 92 98 94 100 100 100 100 94 88 84 92 98 96 91 91 80 76 65 59 41 19 7 5 5 5
17 12 16 23 29 32 54 81 93 98 96 97 87 80 98 100 100 100 100 100 100 100 100 100 100 99 98 90 95 100 100 97 97 90 78 73 62 53 36 15 7 6 6 5
18 12 10 12 17 21 24 29 50 89 95 95 91 88 85 88 98 100 100 100 100 100 100 100 100 100 100 99 91 100 99 94 94 82 74 70 60 49 31 12 7 6 6 5
16 12 9 9 12 15 19 20 22 32 56 92 90 81 78 87 96 99 100 100 100 100 100 99 98 99 100 99 95 99 98 96 90 81 75 69 59 46 26 10 6 6 6 5
12 11 8 8 8 10 13 15 18 24 35 55 84 99 100 96 98 100 100 100 100 100 100 100 98 100 100 99 94 99 96 97 83 79 70 63 53 39 21 8 6 6 7 5

GFSNGP_250_rhum_111.txt.gz
RH
20 22 32 50 46 31 58 58 70 37 52 61 65 73 70 82 100 100 100 100 100 100 100 100 100 100 100 100 100 100 100 100 100 100 100 100 100 100 100 100 100 100 100 100
28 30 34 46 62 54 49 52 72 73 33 58 67 53 74 74 85 100 100 100 100 100 100 100 100 100 100 100 100 100 100 100 100 100 100 100 100 100 100 100 100 100 100 100
41 43 45 43 57 59 55 52 51 69 45 54 48 51 57 68 76 98 100 100 100 100 99 100 100 100 98 100 100 100 100 100 100 100 100 100 100 100 100 100 100 100 100 100
22 27 40 45 49 60 58 50 53 55 56 49 50 48 47 46 61 63 77 79 85 100 100 100 100 100 100 100 95 87 77 85 94 100 100 100 100 100 100 100 100 100 100 100
22 18 16 16 18 30 50 52 69 68 76 64 66 56 59 56 71 83 71 83 91 98 87 89 99 100 100 100 100 100 100 99 95 95 100 100 100 100 89 81 85 80 80 90
38 35 32 29 25 19 19 24 29 37 40 36 34 42 59 69 72 67 72 95 100 98 83 92 84 90 97 100 100 100 100 100 100 100 100 100 100 100 100 96 100 98 85 61
40 41 39 39 39 36 36 35 36 37 36 36 32 34 37 42 53 68 80 88 92 94 100 100 98 100 98 89 95 83 89 86 82 67 54 51 51 49 44 47 47 47 45 50
44 43 42 42 43 50 47 45 43 43 43 45 47 50 52 54 58 54 57 66 70 76 72 63 57 47 52 56 50 47 50 49 52 55 55 57 57 56 54 54 54 53 52 51
58 54 50 50 52 53 55 55 56 59 59 58 58 59 60 59 61 64 67 62 62 57 53 51 54 56 55 55 51 53 53 53 58 60 59 55 52 51 47 53 52 46 40 37
67 68 67 64 61 59 58 58 59 59 61 63 62 60 60 63 65 66 61 61 60 62 60 59 57 59 60 60 58 56 55 52 51 51 49 46 44 47 46 44 60 65 63 77
52 52 56 61 65 69 69 67 65 65 67 66 59 56 56 56 58 58 56 57 59 60 58 57 58 56 55 52 50 45 43 40 40 48 49 52 54 59 70 74 75 78 74 76
58 56 56 54 50 52 58 66 72 70 66 64 66 64 60 58 57 59 54 56 56 56 53 49 46 43 38 35 36 34 38 42 48 51 54 58 76 80 81 84 87 77 80 76
73 65 60 56 52 52 52 48 51 61 63 65 63 62 62 61 59 57 54 55 54 51 49 46 43 40 38 41 41 44 46 51 56 58 68 75 78 86 87 96 90 78 74 72
92 88 75 65 62 57 54 55 50 50 51 50 53 53 53 55 56 54 52 49 49 46 43 43 41 43 44 45 47 50 50 53 68 74 77 74 76 82 86 96 100 97 88 70
95 96 93 84 85 78 72 70 71 65 60 61 63 60 54 53 52 52 50 47 48 50 51 53 53 59 64 63 59 62 72 86 92 88 79 77 76 80 86 96 96 93 83 72
60 88 100 92 72 79 83 83 74 68 69 63 60 57 63 58 54 54 54 55 56 59 63 66 63 67 73 80 84 88 90 90 93 91 80 76 78 87 88 88 92 87 78 62
40 50 48 86 83 78 84 77 73 74 72 71 70 73 74 67 63 62 60 60 64 74 73 70 72 78 82 92 97 99 100 94 80 80 76 73 80 85 87 91 92 87 76 57
46 33 32 44 43 76 78 88 78 79 79 74 84 92 89 91 90 81 81 89 88 97 96 96 97 95 94 96 92 88 90 82 75 72 73 73 80 85 93 88 88 83 71 58
52 45 39 27 23 34 51 82 94 86 82 77 84 93 91 95 98 99 100 100 100 100 100 100 100 100 100 99 88 92 97 88 85 81 93 87 82 83 91 86 87 83 64 52
51 54 42 39 33 21 22 34 42 81 92 96 92 73 70 88 92 98 100 100 100 100 100 100 100 100 100 94 88 89 89 93 96 89 82 90 88 91 87 80 77 77 58 49
43 43 41 41 37 29 25 19 20 32 39 72 96 100 97 93 74 77 97 100 100 100 100 100 100 99 99 81 88 94 91 98 96 99 95 98 97 92 86 76 73 76 53 46
45 43 49 44 28 31 25 23 20 16 17 25 30 50 88 99 90 84 82 78 83 91 99 99 99 98 95 99 100 100 100 100 100 100 100 100 100 86 80 73 74 70 47 39
42 42 50 59 56 37 22 23 23 19 16 13 15 22 27 50 85 85 74 68 77 90 89 83 86 95 100 100 100 100 100 100 100 100 100 98 99 84 74 74 69 56 45 34
43 52 59 65 60 54 45 33 23 18 16 11 10 9 13 22 30 49 75 96 98 81 72 73 86 100 100 100 100 100 100 100 100 100 100 99 90 76 73 69 62 45 38 30
58 63 68 63 56 48 33 28 24 15 12 11 9 8 8 12 19 22 27 48 66 77 91 97 96 96 99 100 100 100 100 100 100 100 100 94 82 79 68 65 54 39 32 24
56 63 60 59 52 35 28 22 14 11 8 9 8 7 7 8 10 11 16 21 24 42 57 75 91 98 100 99 98 98 98 96 92 99 98 89 80 74 62 58 44 34 28 18
59 58 47 44 37 27 17 10 8 8 7 7 6 6 6 6 8 10 11 15 20 24 33 44 64 84 89 90 91 98 100 100 96 98 89 87 78 59 55 48 35 30 24 13